Погода в Ижевске

Погода в Ижевске : погода сейчас, прогноз погоды и архив. Всё, что Вы хотите узнать о погоде в Ижевске!

Хотите узнать прогноз погоды в Ижевске? Тогда Вам сюда: Погода в Ижевске

Поиск расширенной информации на нашем сайте:

Другие новости

Новости СМИ2

Главная страница сайта

Новости сайта

03.07.2017

Напоминаем, что на нашем специализированном сайте Метеоцентр.Азия вы можете получить высокодетализированные автоматические прогнозы погоды по пунктам России, СНГ и мира в авиационном формате (включающие направление и скорость ветра, видимость, явления погоды, количество и форму облачности, нижнюю и верхнюю границу облачности).

Рекомендуем: биографии мастеров спорта, ашихара.

Погода в Ижевске - сегодня

Время (UTC), дата Ветер
(°,м/с) 
Видим.   Явления Облачность Т
(°С)
Тd
(°С)
f(%) Тe
(°С)
Pmin
(гПа)
dP
(гПа)
Po
(мм)
O2
(г/м3)
Тmin Tmax R s Состояние
почвы
15 11.06.18 260 (З) 2-3{04}  10 км    10/0 средняя, верхняя 
[Ac trans|Ci fib]
+13.1 +1.1 44 +14  1008.9  0.4  742  285    +14.4       
03 12.06.18 тихо () -1{02}  10 км    9/6 1000 м средняя 
[Sc|Ac trans]
+7.3 +5.8 90 +7  1010.5  0.9  743  291  +5.6    0.6    влажная 
15 12.06.18 210 (ЮЗ) 3-5{09}  10 км    9/0 средняя 
[Ac trans]
+17.1 +2.9 39 +18  1008.1  -0.4  742  281    +19       
03 13.06.18 190 (Ю) 3-5{07}  10 км  {ливн. осадки}  9/0 средняя, верхняя 
[Ac trans|Ci fib]
+11.3 +10.3 94 +13  1003.7  -1.5  738  284  +10.8      мокрая 
15 13.06.18 190 (Ю) 8-12{17}  10 км  слаб. ливневой дождь  10/6 1000 м кучево-дожд., средняя 
[Cb cap|Ac As]
+12.9 +11.2 89 +14  1001.5  0.6  737  281    +21.6     
03 14.06.18 300 (СЗ) 3-5{07}  10 км  слаб. дождь  10/10 600 м 
[Sc]
+11.1 +9.7 91 +12  1002.9  738  284  +11    0.1    мокрая 
15 14.06.18 290 (З) 4-6{09}  10 км    8/3 600 м верхняя 
[Sc|Ci fib]
+13.2 +5.6 60 +13  1010.5  0.9  744  285    +14.4  0.0     
03 15.06.18 310 (СЗ) 2-3{04}  10 км    4/0 средняя 
[Ac trans]
+8.4 +5 79 +8  1014.8  0.5  746  291  +5        влажная 
15 15.06.18 300 (СЗ) 3-5{09}  10 км    9/1 1000 м средняя 
[Sc diur, vesp|Ac trans]
+12.8 +0.4 43 +13  1014.3  -0.3  746  287    +14.3       
03 16.06.18 310 (СЗ) 2-4{06}  10 км  в посл. час дождь  10/4 1000 м средняя 
[Sc|As op]
+8.9 +3 66 +9  1014.5  0.4  746  291  +6.9    0.0    сухая 
15 16.06.18 340 (С) 2-3{07}  10 км    9/6 1000 м средняя 
[Sc|Ac trans]
+14.5 +8.4 67 +15  1014.9  0.3  747  284    +15.8  0.0     
03 17.06.18 310 (СЗ) 2-3{04}  10 км    9/0 средняя 
[Ac trans]
+11.1 +7.1 76 +11  1013  -0.6  745  287  +10.2        сухая 
15 17.06.18 030 (СВ) 3-5{10}  10 км    6/0 средняя 
[Ac trans]
+16.9 +6.4 50 +17  1012.6  0.2  745  282    +19.5       
03 18.06.18 290 (З) 1-2{03}  10 км    6/0 средняя 
[Ac trans]
+12.7 +10.2 85 +16  1012.3  -0.6  745  285  +11        сухая 
15 18.06.18 340 (С) 3-5{09}  10 км    3/1 1000 м верхняя 
[Cu hum|Ci fib]
+23.9 +8.9 38 +24  1007.8  -0.3  742  273    +24.8       
18 18.06.18 тихо () -3{06}  10 км    ясно 
+16.3 +9.7 65 +17  1008.4  0.1  742  280           
21 18.06.18 тихо () -2{03}  10 км    ясно 
+15.3 +9.9 70 +17  1008.1  -0.4  742  281           
03 19.06.18 280 (З) 1-2{03}  10 км    ясно 
+15.6 +9.9 69 +18  1008.1  742  281  +12.2        сухая 
06 19.06.18 310 (СЗ) 2-3{04}  10 км    ясно 
+22.9 +12 50 +27  1007.4  -0.2  742  273           
15 19.06.18 350 (С) 2-4{07}  10 км    4/3 1000 м верхняя 
[Cu med, cong|Ci fib]
+24.9 +9.2 37 +25  1005.1  -1.1  740  272    +26.5       
03 20.06.18 240 (ЮЗ) 1-3{04}  10 км    4/0 верхняя 
[Ci fib]
+16.7 +11.8 73 +22  1003.2  -0.9  738  278  +14.3        сухая 
15 20.06.18 280 (З) 5-7{14}  10 км  {гроза, ливн. осадки}  9/6 1000 м кучево-дожд., средняя 
[Cb calv|Ac trans]
+15.5 +12.6 83 +20  996.8  1.4  734  277    +26     
03 21.06.18 250 (З) 4-5{06}  10 км    6/0 средняя, верхняя 
[Ac trans|Ci fib]
+11.1 +7.6 79 +10  999.2  735  283  +9.9        влажная 
15 21.06.18 270 (З) 6-9{12}  10 км  слаб. дождь{ливн. осадки}  10/8 300 м средняя 
[Sc|Ac As]
+11 +9.2 89 +11  997.8  -0.3  734  283    +15.6     
03 22.06.18 300 (СЗ) 3-5{07}  10 км    9/8 600 м средняя 
[Sc|Ac trans]
+13 +11.5 91 +17  1001.8  1.7  737  281  +10.4    0.0    влажная 
Время (UTC), дата Ветер
(°,м/с) 
Видим.   Явления Облачность Т
(°С)
Тd
(°С)
f(%) Тe
(°С)
Pmin
(гПа)
dP
(гПа)
Po
(мм)
O2
(г/м3)
Тmin Tmax R s Состояние
почвы

Для получения пояснительной информации подведите курсор к названию столбца.

ПОГОДА в Ижевске - архив

Всё, что Вы хотите узнать о погоде в Ижевске - удобно и подробно!

Выберите нужную дату (начиная с 1 января 2015* года) и нажмите кнопку "Найти".
Будут отображены архивные сводки погоды по пункту Ижевск, начиная с указанной даты.


Отображать данные в формате CSV (для использования в таблицах Excel)


Внимание! Наш архив погоды предназначен исключительно для личного некоммерческого использования в познавательных целях. Если Вам необходимы официальные справки о состоянии погоды (для производственных, юридических, коммерческих и т.п. целей), обращайтесь в органы Росгидромета.

*Примечание: данная дата относится к архиву по метеостанциям СССР (Россия, СНГ, Балтия).
Архив по метеостанциям Зарубежной Европы и Азии (кроме Китая) хранится 10 дней, по другим регионам земного шара (Китай, Африка, Америка, Австралия, Океания) - 1 день.

Ижевск - район местоположения метеостанции


Название, широта, долгота, высота метеостанции:
Ижевск 56.8°ш. 53.4°д. 159 м над ур. моря [Российская Федерация]

Дополнительная информация

В oтличие oт бoльшинства пoгoдных сайтoв мы публикуем пoдрoбную метеoинфoрмацию в детальнoм прoфессиoнальнoм фoрмате.

Характеристики температуры и влажнoсти вoздуха измеряются на высoте 2 м в тени вдали oт зданий и деревьев.
Скoрoсть ветра измеряется на высoте 10 м (на урoвне рoста челoвека скoрoсть ветра ниже в 1.5-2 раза). Если метеoстанция нахoдится в гoрoде или в лесу, тo скoрoсть ветра занижена на 2-4 м/с пo сравнению с oткрытым местoм. Скoрoсть ветра над акватoриями крупных рек и oзёр, а также на вершинах хoлмoв на 2-5 м/с выше, чем в oбычных услoвиях.
Атмoсфернoе давление в разных тoчках местнoсти мoжет значительнo oтличаться oт давления на метеoстанции, в зависимoсти oт услoвий рельефа (при пoдъёме на 10 м давление пoнижается примернo на 1 мм рт.ст.).